Location: Mountain_View
(35.6670°N, 81.4000°W)
Time: 02:40:21
(UTC-04:00)

Daily predictions for brighter satellites

Satellite Brightness Start Highest point End
(mag) Time Altitude Azimuth Time Altitude Azimuth Time Altitude Azimuth
Cosmos 1655 Rocket 4.3 00:11:03 57° W 00:11:05 57° W 00:17:14 10° N
Cosmos 2082 4.5 00:10:13 10° NNW 00:14:40 47° NNE 00:14:40 47° NNE
Cosmos 2278 4.4 00:17:39 49° NNE 00:17:39 49° NNE 00:21:45 10° NNE
H-2A R/B 4.4 00:27:42 19° NW 00:27:42 19° NW 00:29:07 10° NNW
CZ-2C R/B 3.9 00:24:06 10° NNE 00:26:55 32° NNE 00:26:55 32° NNE
USA 229 DEB 3.9 00:30:45 61° NE 00:30:45 61° NE 00:36:22 10° NNE
USA 229 3.9 00:30:54 60° NE 00:30:54 60° NE 00:36:27 10° NNE
Cosmos 2227 Rocket 3.1 00:33:15 10° NNW 00:37:06 45° NW 00:37:06 45° NW
CZ-4C R/B 4.0 00:34:41 10° NNW 00:41:11 35° NE 00:42:51 32° ENE
Milstar 3 4.5 00:37:44 10° W 00:41:17 24° WSW 00:41:17 24° WSW
BREEZE-M DEB (TANK) 4.5 00:33:51 10° SW 00:57:42 74° NW 01:02:46 10° NE
Cosmos 1980 Rocket 3.6 01:01:51 31° NE 01:01:51 31° NE 01:04:46 10° NNE
NOSS 3-1 (C) 4.4 01:20:01 40° NE 01:20:01 40° NE 01:23:58 10° NNE
Cosmos 1697 Rocket 4.0 01:26:53 35° NNW 01:26:53 35° NNW 01:30:48 10° N
Cosmos 2297 Rocket 4.1 01:27:55 10° NW 01:30:09 21° WNW 01:30:09 21° WNW
SL-16 R/B 3.6 01:48:32 32° NE 01:48:32 32° NE 01:51:39 10° NNE
Cosmos 2322 Rocket 3.5 01:54:35 36° NE 01:54:35 36° NE 01:57:55 10° NNE
Mayak 1.6 02:05:29 10° NNW 02:06:13 13° NNW 02:06:13 13° NNW
ATLAS 2AS CENTAUR R/B 3.8 02:21:11 38° ESE 02:21:11 38° ESE 02:27:57 10° NE
NOSS 3-1 (A) 4.3 02:26:49 41° NW 02:26:49 41° NW 02:32:17 10° NNE
CZ-4C R/B 3.6 02:22:51 10° NW 02:27:59 43° WNW 02:27:59 43° WNW
Cosmos 2263 Rocket 3.0 02:29:00 10° NNW 02:33:26 49° NNE 02:33:26 49° NNE
Cosmos 1709 Rocket 4.3 02:39:20 59° N 02:39:20 59° N 02:44:14 10° N
Cosmos 2360 Rocket 3.0 02:43:23 48° NE 02:43:23 48° NE 02:47:33 10° NNE
Cosmos 1980 Rocket 4.3 02:43:36 16° NW 02:43:40 16° NW 02:47:04 10° NNW
Cosmos 2219 Rocket 4.4 02:44:13 15° E 02:44:13 15° E 02:47:18 10° ENE
COSMOS 2428 3.8 02:59:19 37° E 02:59:19 37° E 03:04:01 10° NE
Cosmos 2322 3.9 03:15:50 67° N 03:15:50 67° N 03:20:47 10° NNE
Cosmos 1486 Rocket 4.4 03:10:45 10° N 03:15:34 59° NE 03:15:34 59° NE
Cosmos 2333 Rocket 3.8 03:16:29 24° ESE 03:17:08 25° ESE 03:21:39 10° NE
SL-08 R/B 4.1 03:18:56 46° N 03:18:56 46° N 03:22:16 10° N
SL-16 R/B 3.3 03:15:50 34° ESE 03:18:08 49° ENE 03:24:08 10° N
Cosmos 2184 Rocket 3.8 03:18:46 86° ENE 03:18:46 86° ENE 03:24:54 10° N
Resurs 1-4 Rocket 2.7 03:16:44 10° NNE 03:21:44 47° E 03:21:44 47° E
SL-16 R/B 4.0 03:30:24 19° WNW 03:30:34 19° NW 03:34:33 10° N
DELTA 2 R/B (1) 3.8 03:32:19 59° NW 03:32:50 62° N 03:38:21 10° ENE
IRS-1C 4.1 03:28:11 10° NNE 03:33:15 80° N 03:33:15 80° N
AQUA 4.3 03:29:54 10° N 03:33:42 54° NNW 03:33:42 54° NNW
Cosmos 2058 Rocket 3.7 03:36:39 54° NNE 03:36:39 54° NNE 03:40:10 10° N
Cosmos 2322 Rocket 4.1 03:36:23 17° WNW 03:36:47 17° NW 03:40:29 10° NNW
Cosmos 1707 4.3 03:33:41 10° N 03:36:03 34° NNE 03:36:03 34° NNE
Lacrosse 5 3.9 03:39:26 17° ESE 03:39:36 17° ESE 03:42:54 10° ENE
USA 234 3.6 03:36:02 10° NE 03:42:23 56° NW 03:44:08 44° W
Cosmos 2333 4.0 03:44:12 82° S 03:44:29 88° ESE 03:50:12 10° NNE
ADEOS Rocket 3.1 03:40:35 10° N 03:46:24 52° WNW 03:46:32 52° WNW
Meteor 2-5 Rocket 3.9 03:42:40 10° N 03:48:22 72° E 03:49:55 49° SSE
Cosmos 2074 Rocket 4.2 03:48:28 51° W 03:48:41 51° W 03:54:48 10° N
Nadezhda 3 Rocket 4.3 03:43:39 10° N 03:49:53 65° E 03:52:38 34° SSE
H-2A R/B 3.8 03:13:29 10° W 03:53:09 66° SSW 03:58:54 10° ESE
CZ-2D R/B 2.0 03:50:13 10° N 03:55:43 82° WNW 03:56:15 72° SW
BREEZE-M DEB (TANK) 3.0 03:56:16 65° SSE 03:56:36 68° SE 04:07:52 10° NE
Cosmos 1607 3.9 03:51:43 10° NNW 03:58:13 89° WSW 04:02:37 22° SSE
IRS-1D 3.4 04:00:16 10° N 04:05:12 66° WNW 04:05:27 65° W
OAO 3 Rocket 3.1 04:06:15 74° SE 04:06:15 74° SE 04:10:48 10° ESE
Spot 4 Rocket 4.0 04:02:21 10° N 04:07:27 60° WNW 04:07:50 58° W
MOS 1 Rocket 2.9 04:03:23 10° NNE 04:07:48 87° E 04:07:53 86° SE
Cosmos 1503 Rocket 3.9 04:03:44 10° NNW 04:09:05 83° WSW 04:10:27 52° S
Meteor 2-8 Rocket 4.3 04:05:05 10° NNW 04:11:11 72° W 04:12:57 47° SSW
ATLAS 2AS CENTAUR R/B 3.6 04:08:37 33° W 04:11:33 46° NW 04:19:19 10° NNE
Cosmos 2154 Rocket 4.0 04:12:07 50° SW 04:13:37 64° W 04:19:50 10° N
ADEOS 3.5 04:09:34 10° N 04:14:46 70° WNW 04:15:41 57° SW
Cosmos 1544 3.5 04:15:09 58° E 04:15:13 58° E 04:18:53 10° NNE
Meteor 2-19 Rocket 4.4 04:15:33 48° SW 04:17:08 65° W 04:23:15 10° N
Cosmos 1992 Rocket 4.0 04:16:51 56° WSW 04:17:35 63° WNW 04:22:45 10° N
Cosmos 2263 Rocket 4.4 04:14:40 10° WNW 04:15:05 11° WNW 04:15:05 11° WNW
Cosmos 1805 4.0 04:17:43 41° SE 04:18:30 47° E 04:22:16 10° NNE
NOSS 3-4 (A) 4.2 04:16:49 29° S 04:19:40 47° ESE 04:25:45 10° NE
NOSS 3-4 (C) 4.2 04:16:52 28° S 04:19:45 46° ESE 04:25:49 10° NE
Cosmos 1271 Rocket 3.8 04:23:45 34° NW 04:23:45 34° NW 04:26:48 10° N
ARIANE 5 R/B 2.9 04:20:22 10° N 04:25:19 48° WNW 04:26:12 43° WSW
Cosmos 2360 Rocket 4.0 04:25:09 16° WNW 04:26:26 17° NW 04:29:58 10° NNW
Cosmos 2219 Rocket 2.3 04:25:56 45° WSW 04:27:29 62° WNW 04:33:07 10° NNE
BREEZE-M DEB (TANK) 3.4 04:27:31 51° SW 04:28:39 88° SE 04:40:21 10° NE
Cosmos 2228 4.4 04:29:37 24° WNW 04:29:37 24° WNW 04:32:35 10° NNW
Meteor 1-22 Rocket 4.3 04:27:27 43° SSW 04:29:22 69° W 04:35:18 10° N
Tiangong 1 2.5 04:31:28 30° E 04:31:28 30° E 04:33:07 10° ENE
Cosmos 1340 Rocket 3.0 04:31:26 10° NNW 04:34:59 49° W 04:34:59 49° W
Cosmos 1980 3.6 04:33:21 37° SSW 04:35:43 89° WNW 04:41:26 10° NNE
Cosmos 2237 Rocket 2.1 04:34:01 36° SSW 04:36:27 85° ESE 04:42:06 10° NNE
Cosmos 1844 Rocket 2.7 04:31:43 10° NNW 04:37:17 59° WSW 04:40:43 23° S
Intelsat 5-1 Rocket 3.9 04:37:15 21° S 04:37:18 21° SSE 04:42:35 10° ESE
ATLAS 3B R/B 2.4 04:31:11 10° NNW 04:37:51 80° WSW 04:44:18 10° SSE
Cosmos 2341 Rocket 4.2 04:36:31 35° SW 04:39:04 56° W 04:45:20 10° N
COSMOS 2428 3.9 04:41:21 24° W 04:43:04 27° WNW 04:47:56 10° N
Aureole 2 Rocket 3.9 04:43:07 28° WNW 04:43:18 29° WNW 04:46:50 10° N
BREEZE-M DEB (TANK) 3.4 04:43:16 25° WNW 04:44:21 33° NNW 04:48:38 10° NE
SEDSat Delta rocket 3.0 04:44:26 45° SSW 04:44:42 46° S 04:48:39 10° ESE
UNKNOWN OBJECT B 3.2 04:41:22 10° N 04:45:04 44° WNW 04:45:32 42° W
Cosmos 1809 Rocket 4.4 04:49:13 23° SSW 04:53:13 75° W 04:59:23 10° N
ADEOS II 2.6 04:48:36 10° NNE 04:53:48 58° E 04:58:42 11° S
Cosmos 2218 Rocket 4.0 04:50:23 19° S 04:55:03 82° W 05:01:27 10° N
Cosmos 389 Rocket 4.2 04:56:54 20° WNW 04:56:54 20° WNW 04:59:22 10° NNW
MOS 1-B 4.4 04:51:26 10° NNE 04:57:16 83° ESE 05:02:04 16° SSW
Lacrosse 5 rocket 1.4 04:53:20 10° NW 04:57:24 79° NE 05:01:41 10° SE
Cosmos 482 Debris 3.4 04:59:12 50° NE 04:59:12 50° NE 05:01:01 10° NE
Meteor 2-21 4.4 04:55:56 21° SSW 05:00:04 69° W 05:06:12 10° N
Meteor 2-14 Rocket 4.4 04:55:26 15° S 05:00:35 90° W 05:06:43 10° N
Cosmos 2333 Rocket 2.9 04:58:30 26° WSW 05:01:06 40° WNW 05:06:26 10° N
Resurs 1-4 Rocket 3.6 04:57:38 10° NNW 05:01:15 19° WNW 05:02:49 17° W
SL-16 R/B 3.6 05:00:55 22° WSW 05:01:56 23° W 05:06:47 10° NW
MOZ.5/SAFIR/RUBIN 5/SL-8 4.4 05:03:27 28° SW 05:04:53 34° W 05:09:06 10° NNW
USA 161 1.3 05:03:28 26° S 05:04:59 81° WSW 05:07:53 10° NNW
Cosmos 1758 3.4 05:03:48 29° SSW 05:05:36 56° W 05:09:36 10° N
Abrixas rocket 3.8 05:07:34 19° WNW 05:09:08 27° NNW 05:12:01 10° NNE
Cosmos 1470 2.9 05:06:16 14° S 05:09:32 73° E 05:13:26 10° N
USA 238 DEB 3.8 05:02:34 10° NW 05:09:32 61° WSW 05:16:33 10° SSE
USA 238 3.8 05:02:40 10° NW 05:09:39 61° WSW 05:16:40 10° SSE
Cosmos 1953 2.4 05:07:49 25° SSW 05:09:55 58° W 05:13:54 10° N
Cosmos 1356 Rocket 3.5 05:06:10 10° NNW 05:10:02 49° W 05:12:37 19° SSW
Cosmos 2278 Rocket 2.1 05:06:29 10° NNW 05:12:10 80° WSW 05:17:49 10° SSE
Meteor 2-15 4.4 05:09:41 10° NNW 05:15:48 69° W 05:21:51 10° S
Centaur D AC-29 2.9 05:13:55 20° SW 05:17:11 40° S 05:36:43 10° ESE
Cosmos 968 Rocket 3.5 05:14:02 10° NNW 05:19:03 53° WSW 05:23:59 10° S
DELTA 2 R/B (1) 4.0 05:14:09 10° WNW 05:19:42 64° N 05:25:13 10° E
PSLV R/B 3.8 05:16:06 10° N 05:20:04 78° WNW 05:23:38 13° SSW
Cosmos 1733 3.2 05:18:48 15° SSW 05:21:55 70° W 05:25:48 10° N
Lacrosse 5 2.0 05:18:39 20° SW 05:22:06 62° NW 05:27:09 10° NE
ERBS 4.5 05:22:15 12° WNW 05:24:09 17° NW 05:26:31 10° N
NOSS 3-2 (A) 4.1 05:16:52 10° NNW 05:24:35 90° NE 05:32:51 10° SSE
SL-16 R/B 2.2 05:20:33 12° SSW 05:25:51 90° WNW 05:31:33 10° NNE
Cosmos 1076 Rocket 3.4 05:21:45 10° N 05:26:00 79° W 05:30:16 10° S
Cosmos 1674 2.8 05:22:59 10° NNW 05:26:46 57° W 05:30:33 10° S
NOSS 2-2 (D) 4.4 05:27:39 10° S 05:31:22 42° ESE 05:35:22 10° NE
RESURS DK-1 2.3 05:32:21 11° SSW 05:36:16 85° WNW 05:40:27 10° NNE
Cosmos 1818 4.4 05:32:23 15° WSW 05:36:26 37° NW 05:41:28 10° NNE
CZ-4B R/B 3.1 05:34:48 10° N 05:38:41 53° WNW 05:42:44 10° SSW
Landsat 4 3.7 05:35:27 10° SSE 05:39:09 88° E 05:42:53 10° NNW
Atlas Centaur 2 2.3 05:36:38 15° SW 05:39:32 35° SSE 05:43:52 10° ESE
Okean 3 Rocket 4.2 05:37:47 10° NNW 05:41:54 37° W 05:46:01 10° SSW
Okean O Rocket 1.7 05:38:02 10° N 05:42:27 61° WNW 05:46:50 10° SSW
Cosmos 1766 Rocket 3.5 05:41:56 10° N 05:46:23 74° W 05:50:47 10° S
NOSS 3-2 (C) 4.1 05:39:09 10° NNW 05:46:53 85° WSW 05:55:09 10° SSE
OAO 3 Rocket 3.7 05:44:48 10° W 05:49:17 39° SSW 05:53:49 10° SE
Cosmos 724 4.3 05:44:02 10° NW 05:49:50 64° WSW 05:55:31 10° SSE
NOSS 2-2 (C) 3.5 05:47:20 10° SSW 05:51:14 74° ESE 05:55:31 10° NE
IRS-1C Rocket 4.1 05:46:24 10° N 05:51:39 72° WNW 05:56:52 10° SSW
CENTAUR R/B 4.4 05:45:20 10° NNW 05:52:57 46° NE 06:00:59 10° ESE
KORONAS-FOTON 4.4 05:51:04 10° NNW 05:54:42 37° W 05:58:20 10° SSW
Cosmos 1328 4.0 05:52:09 10° N 05:56:06 78° E 06:00:02 10° S
Cosmos 1743 Rocket 4.3 05:52:39 10° N 05:57:06 61° E 06:01:31 10° SSE
Cosmos 1626 4.2 05:59:22 10° NNE 06:02:47 33° E 06:06:11 10° SE
Cosmos 1356 3.8 06:01:38 10° NNW 06:04:59 44° W 06:08:20 10° SSW
Geosat 4.0 06:00:02 10° NNE 06:05:04 81° WNW 06:10:05 10° SSW
Meteor 1-16 Rocket 4.4 06:02:23 10° SSW 06:08:06 69° W 06:14:00 10° N
